Location: ???????
(54.9996°N, 37.9529°E)
Time: 14:36:45
(UTC+00:00)

FENGYUN 1C DEB - Visible Passes

Search period start: 14 September 2024 00:00
Search period end: 24 September 2024 00:00
Orbit: 804 x 863 km, 99.6° (Epoch: 09 September)

Date Brightness Start Highest point End Pass type
(mag) Time Alt. Az. Time Alt. Az. Time Alt. Az.
14 Sep ? 19:36:21 10° NE 19:38:34 18° ENE 19:38:34 18° ENE visible
14 Sep ? 21:15:56 10° NNE 21:20:12 56° N 21:20:12 56° N visible
14 Sep ? 22:57:01 10° N 23:00:58 21° NW 23:01:50 20° WNW visible
15 Sep ? 19:20:03 10° NE 19:21:26 14° ENE 19:21:26 14° ENE visible
15 Sep ? 20:59:07 10° NNE 21:03:04 49° NNE 21:03:04 49° NNE visible
15 Sep ? 22:39:58 10° N 22:44:23 26° NW 22:44:42 26° WNW visible
16 Sep ? 19:04:11 10° ENE 19:04:18 10° ENE 19:04:18 10° ENE visible
16 Sep ? 20:42:21 10° NNE 20:45:56 40° NE 20:45:56 40° NE visible
16 Sep ? 22:23:00 10° N 22:27:34 32° NW 22:27:34 32° NW visible
17 Sep ? 20:25:36 10° NNE 20:28:47 32° NE 20:28:47 32° NE visible
17 Sep ? 22:06:02 10° N 22:10:25 39° NW 22:10:25 39° NW visible
17 Sep ? 23:48:04 10° NNW 23:50:04 12° NW 23:52:03 10° WNW visible
18 Sep ? 20:08:55 10° NNE 20:11:38 25° NE 20:11:38 25° NE visible
18 Sep ? 21:49:06 10° N 21:53:16 44° NNW 21:53:16 44° NNW visible
18 Sep ? 23:30:40 10° N 23:33:34 15° NW 23:34:54 14° WNW visible
19 Sep ? 19:52:18 10° NE 19:54:29 20° NE 19:54:29 20° NE visible
19 Sep ? 21:32:12 10° NNE 21:36:07 46° N 21:36:07 46° N visible
19 Sep ? 23:13:28 10° N 23:17:01 18° NW 23:17:44 18° NW visible
20 Sep ? 19:35:49 10° NE 19:37:19 15° NE 19:37:19 15° NE visible
20 Sep ? 21:15:20 10° NNE 21:18:57 43° NNE 21:18:57 43° NNE visible
20 Sep ? 22:56:21 10° N 23:00:27 22° NW 23:00:35 22° NW visible
21 Sep ? 19:19:32 10° NE 19:20:09 12° NE 19:20:09 12° NE visible
21 Sep ? 20:58:29 10° NNE 21:01:47 38° NNE 21:01:47 38° NNE visible
21 Sep ? 22:39:18 10° N 22:43:25 27° NW 22:43:25 27° NW visible
22 Sep ? 20:41:41 10° NNE 20:44:36 31° NE 20:44:36 31° NE visible
22 Sep ? 22:22:17 10° N 22:26:14 32° NW 22:26:14 32° NW visible
23 Sep ? 00:05:06 10° NNW 00:05:57 10° NW 00:06:49 10° NW visible
23 Sep ? 20:24:55 10° NNE 20:27:25 26° NE 20:27:25 26° NE visible
23 Sep ? 22:05:18 10° N 22:09:03 36° NNW 22:09:03 36° NNW visible
23 Sep ? 23:47:11 10° NNW 23:49:27 13° NW 23:50:41 12° NW visible
